Location: Bruch
(44.2051°N, 0.4120°E)
Time: 18:32:59
(UTC+00:00)

Cosmos 1844 - Pass Details

Date: 29 November 2020
Orbit: 821 x 869 km, 70.9° (Epoch: 23 January)

Event Time Altitude Azimuth Distance (km) Brightness Sun altitude
Rises 06:06:34 0° 217° (SW) 3,341 6.6 -11.5°
Reaches altitude 10° 06:09:02 10° 222° (SW) 2,412 5.9 -11.0°
Maximum altitude 06:14:26 54° 300° (WNW) 993 3.7 -10.1°
Drops below altitude 10° 06:19:54 10° 18° (NNE) 2,438 6.1 -9.2°
Sets 06:22:25 0° 23° (NNE) 3,380 6.9 -8.8°
